Visibility
15.0 15.0 15.0 15.0 15.0 15.0 15.0 15.0 15.0 15.0 15.0 15.0 15.0 15.0 15.0 15.0 15.0 15.0 15.0 15.0 15.0 15.0 15.0 15.0 15.0 15.0 15.0 15.0 15.0 15.0 15.0 15.0 15.0 15.0 15.0 15.0 15.0 15.0 15.0 15.0 15.0 15.0 15.0
15.0 15.0 15.0 15.0 15.0 15.0 15.0 15.0 15.0 15.0 15.0 15.0 15.0 15.0 15.0 15.0 15.0 15.0 15.0 15.0 15.0 15.0 15.0 15.0 15.0 15.0 15.0 15.0 15.0 15.0 15.0 15.0 9.1 15.0 15.0 15.0 15.0 15.0 15.0 15.0 15.0 15.0 15.0
15.0 15.0 14.8 15.0 15.0 15.0 15.0 15.0 15.0 15.0 15.0 15.0 15.0 15.0 15.0 15.0 15.0 15.0 15.0 15.0 15.0 15.0 15.0 15.0 15.0 15.0 15.0 15.0 15.0 15.0 15.0 15.0 11.8 15.0 15.0 15.0 15.0 15.0 15.0 15.0 15.0 15.0 15.0
15.0 15.0 15.0 11.6 1.6 15.0 15.0 15.0 15.0 15.0 15.0 15.0 15.0 15.0 15.0 15.0 15.0 15.0 15.0 15.0 15.0 15.0 15.0 15.0 15.0 15.0 15.0 15.0 15.0 15.0 15.0 15.0 15.0 15.0 15.0 15.0 15.0 15.0 15.0 15.0 15.0 15.0 15.0
15.0 15.0 15.0 15.0 15.0 15.0 9.3 4.5 6.7 15.0 15.0 15.0 15.0 15.0 15.0 15.0 15.0 15.0 15.0 15.0 15.0 15.0 15.0 15.0 10.7 15.0 15.0 8.5 15.0 15.0 15.0 15.0 13.5 15.0 15.0 15.0 15.0 15.0 15.0 15.0 15.0 15.0 15.0
15.0 15.0 15.0 15.0 3.1 15.0 15.0 15.0 12.3 14.9 15.0 15.0 15.0 15.0 15.0 15.0 15.0 15.0 15.0 15.0 15.0 15.0 15.0 15.0 15.0 15.0 15.0 15.0 15.0 15.0 15.0 15.0 15.0 15.0 15.0 15.0 15.0 15.0 15.0 15.0 15.0 15.0 15.0
15.0 15.0 15.0 15.0 15.0 9.7 9.3 15.0 15.0 3.2 1.7 2.0 15.0 15.0 15.0 15.0 15.0 15.0 15.0 15.0 15.0 15.0 15.0 15.0 15.0 15.0 15.0 12.0 15.0 15.0 15.0 7.1 10.5 12.2 15.0 15.0 15.0 15.0 15.0 15.0 15.0 15.0 15.0
15.0 15.0 15.0 15.0 15.0 15.0 15.0 15.0 2.2 15.0 1.1 1.7 13.0 15.0 15.0 15.0 15.0 15.0 5.0 15.0 15.0 15.0 15.0 15.0 12.2 8.8 15.0 6.3 13.4 15.0 15.0 15.0 15.0 13.6 15.0 15.0 15.0 15.0 15.0 15.0 15.0 15.0 15.0
15.0 15.0 15.0 15.0 15.0 15.0 15.0 15.0 15.0 3.6 12.1 2.2 10.7 0.7 2.0 15.0 15.0 14.1 2.4 2.5 3.4 4.2 5.6 4.9 10.4 13.1 15.0 3.9 5.2 7.2 6.8 15.0 4.1 14.8 15.0 15.0 15.0 15.0 8.2 15.0 15.0 15.0 15.0
15.0 15.0 15.0 15.0 15.0 15.0 15.0 15.0 15.0 15.0 15.0 3.0 15.0 1.8 0.4 1.2 0.1 0.0 0.1 2.8 2.9 2.8 3.1 15.0 9.8 3.5 5.0 3.0 3.7 6.3 4.9 15.0 11.4 15.0 15.0 15.0 15.0 15.0 15.0 15.0 6.4 13.9 15.0
15.0 15.0 15.0 15.0 15.0 15.0 15.0 15.0 15.0 15.0 15.0 11.1 13.3 7.8 11.9 2.4 0.1 0.1 0.0 0.2 0.3 0.6 0.9 5.1 12.6 0.0 0.0 0.1 2.0 6.9 9.7 11.6 15.0 15.0 15.0 15.0 10.6 3.0 11.0 15.0 15.0 15.0 15.0
15.0 15.0 15.0 15.0 15.0 15.0 15.0 15.0 15.0 15.0 15.0 15.0 15.0 6.0 5.7 0.5 0.1 0.0 0.0 0.1 0.1 0.1 0.2 15.0 3.9 0.0 0.0 0.0 0.0 0.0 0.0 0.1 7.5 6.6 15.0 15.0 15.0 15.0 15.0 15.0 15.0 15.0 15.0
15.0 15.0 15.0 15.0 15.0 15.0 6.9 15.0 6.6 3.4 15.0 15.0 14.9 0.1 0.0 0.1 0.1 0.0 0.0 0.0 0.0 0.2 15.0 1.4 0.4 0.2 0.1 0.1 0.1 0.1 0.1 0.6 4.8 13.9 15.0 15.0 14.6 15.0 15.0 5.2 13.9 15.0 15.0
12.6 15.0 15.0 15.0 12.9 12.0 11.8 1.6 12.6 2.6 0.8 0.2 0.1 0.4 0.3 0.1 0.1 0.1 0.1 0.1 0.0 0.2 0.1 0.1 0.1 0.0 0.0 0.1 0.1 0.1 15.0 9.0 13.7 15.0 15.0 15.0 15.0 15.0 13.2 10.0 15.0 15.0 15.0
0.4 15.0 15.0 15.0 0.4 0.0 0.0 0.0 0.0 0.0 0.2 1.5 4.0 2.2 2.3 1.4 9.5 0.1 0.1 5.7 15.0 0.2 0.1 0.1 0.2 0.2 1.8 15.0 15.0 15.0 15.0 13.6 8.0 14.0 15.0 15.0 15.0 3.0 7.8 10.3 15.0 15.0 15.0
0.1 0.3 0.1 13.4 2.5 10.5 0.1 0.0 0.1 0.0 0.0 0.0 0.0 0.1 0.0 0.1 0.0 0.0 0.0 0.0 0.0 0.0 0.1 0.6 0.2 0.5 10.7 15.0 13.5 15.0 15.0 12.0 13.9 9.2 14.3 8.6 7.2 14.7 15.0 15.0 15.0 15.0 15.0
0.2 2.2 12.5 4.8 0.8 4.7 15.0 1.3 0.0 0.1 0.1 0.0 0.0 0.0 0.0 0.0 0.0 0.0 0.0 0.0 0.0 0.0 15.0 15.0 15.0 1.0 0.2 2.5 0.9 2.5 15.0 0.7 10.1 5.3 6.6 4.1 2.7 13.8 12.1 15.0 15.0 15.0 15.0
3.4 2.9 6.1 14.7 4.4 3.0 8.0 1.9 15.0 10.3 14.0 15.0 0.1 0.0 0.0 0.0 0.0 0.0 0.0 0.5 3.6 7.4 15.0 15.0 15.0 15.0 15.0 15.0 14.8 15.0 15.0 12.0 15.0 15.0 2.7 3.2 5.6 5.4 15.0 15.0 15.0 15.0 15.0
15.0 15.0 8.8 6.5 1.9 3.1 2.2 12.2 5.7 4.8 3.2 9.7 13.5 7.6 0.1 0.0 0.0 0.0 0.0 15.0 15.0 15.0 15.0 15.0 15.0 15.0 15.0 15.0 15.0 15.0 15.0 15.0 15.0 15.0 15.0 15.0 15.0 15.0 12.2 15.0 15.0 15.0 15.0
2.1 2.3 13.1 14.8 4.8 12.8 14.0 15.0 15.0 7.0 3.2 2.4 15.0 15.0 15.0 15.0 15.0 15.0 15.0 15.0 12.4 15.0 15.0 15.0 15.0 15.0 15.0 15.0 15.0 15.0 15.0 15.0 15.0 15.0 15.0 15.0 15.0 15.0 15.0 15.0 15.0 15.0 15.0
15.0 15.0 15.0 15.0 15.0 15.0 15.0 15.0 14.4 11.5 4.9 15.0 15.0 15.0 15.0 15.0 15.0 15.0 14.6 15.0 15.0 15.0 15.0 15.0 15.0 15.0 15.0 15.0 15.0 15.0 15.0 15.0 15.0 15.0 15.0 15.0 15.0 15.0 15.0 15.0 15.0 15.0 15.0
15.0 15.0 15.0 15.0 15.0 15.0 13.6 15.0 15.0 15.0 15.0 15.0 15.0 15.0 15.0 15.0 15.0 15.0 15.0 15.0 15.0 15.0 15.0 15.0 15.0 15.0 15.0 7.0 15.0 15.0 15.0 15.0 15.0 15.0 15.0 15.0 15.0 15.0 15.0 15.0 15.0 15.0 15.0
15.0 15.0 15.0 15.0 15.0 15.0 15.0 15.0 15.0 15.0 15.0 15.0 15.0 15.0 15.0 15.0 15.0 15.0 15.0 15.0 15.0 15.0 15.0 15.0 15.0 15.0 15.0 15.0 15.0 15.0 14.7 15.0 15.0 15.0 15.0 15.0 15.0 15.0 15.0 15.0 15.0 15.0 15.0
15.0 15.0 15.0 15.0 15.0 15.0 15.0 15.0 15.0 15.0 15.0 15.0 15.0 15.0 15.0 15.0 15.0 15.0 15.0 15.0 15.0 15.0 15.0 15.0 15.0 15.0 15.0 15.0 15.0 15.0 15.0 15.0 15.0 15.0 15.0 15.0 15.0 15.0 15.0 15.0 15.0 15.0 15.0
15.0 15.0 15.0 15.0 15.0 15.0 15.0 15.0 15.0 15.0 15.0 15.0 15.0 15.0 15.0 15.0 15.0 15.0 15.0 15.0 15.0 15.0 15.0 15.0 15.0 15.0 15.0 15.0 15.0 15.0 1.9 0.5 15.0 14.8 15.0 15.0 15.0 15.0 15.0 15.0 15.0 15.0 15.0
15.0 15.0 15.0 15.0 15.0 15.0 15.0 15.0 15.0 15.0 15.0 15.0 15.0 15.0 15.0 15.0 15.0 15.0 15.0 15.0 15.0 15.0 15.0 15.0 15.0 15.0 15.0 15.0 15.0 15.0 15.0 12.2 15.0 9.9 10.1 15.0 15.0 15.0 15.0 15.0 15.0 15.0 10.6